[[{"header":{"parameterUnit":"m.s-1","parameterCategory":1,"la1":30.2991,"la2":30.254,"lo1":-89.0895,"lo2":-89.0444,"dy":0.0017,"dx":0.0017,"nx":28,"ny":28,"refTime":"2026-01-06T03:00:00:Z","depth":0,"parameterNumber":2,"parameterNumberName":"U-component_of_WINDS"},"data":[0,0,0,0,0,0,0,0,0,0,0,0,0,0,0,0,0,0,0,0,0,0,0,0,0,0,0,0,0,0,0,0,0,0,0,0,0,0,0,0,0,0,0,0,0,0,0,0,0,0,0,0,0,0,0,0,0,0,0.0125,0.0125,0,0.0104,0.0104,0.0103,0.0063,0.0062,0.0061,0.0061,0.0036,0.0036,0.0036,0,0,0,0,0,0,0,0,0,0,0,0,0,0.013,0.013,0.0125,0.0125,0.0125,0.0104,0.0104,0.0103,0.0063,0.0062,0.0061,0.006,0.0036,0.0036,0.0036,0,0,0,0,0,0,0,0,0,0,0,0,0,0.012,0.013,0.0125,0.0102,0.01,0.0104,0.0104,0.0103,0.0063,0.0062,0.0061,0.006,0.0035,0.0036,0.0036,0.0059,0,0,0.0036,0.0036,0,0,0,0,0,0,0,0,0.0121,0.012,0.0106,0.0104,0.0101,0.0085,0.0096,0.0088,0.0064,0.0077,0.0061,0.0059,0.0053,0.0051,0.005,0.0058,0.0057,0.0036,0.0036,0.0036,0.0036,0,0,0,0,0,0,0,0.0122,0.0121,0.0117,0.0106,0.0103,0.0093,0.009,0.0094,0.0072,0.0076,0.0073,0.0071,0.0051,0.005,0.0049,0.0057,0.0036,0.0036,0.0036,0.0036,0.0085,0.0086,0,0,0,0,0,0,0.0126,0.0122,0.0117,0.0116,0.0109,0.0093,0.009,0.0091,0.0071,0.0067,0.0072,0.0069,0.005,0.0049,0.0048,0.0076,0.0036,0.0036,0.0036,0.0084,0.0085,0.0087,0,0,0,0,0,0,0.0126,0.0126,0.0118,0.0118,0.0116,0.0095,0.0096,0.0092,0.009,0.0069,0.0064,0.0075,0.0049,0.0048,0.0057,0.0074,0.0036,0.0036,0.0082,0.0084,0.0086,0.0131,0,0,0,0,0,0,0.0127,0.0126,0.0135,0.0119,0.0117,0.0129,0.0097,0.0092,0.0091,0.0087,0.007,0.0066,0.0048,0.0057,0.0057,0.0073,0.0036,0.0081,0.0083,0.0086,0.0127,0.0134,0.0139,0,0,0,0,0,0.0127,0.0147,0.0136,0.0136,0.0127,0.013,0.0129,0.0108,0.0092,0.0101,0.0088,0.0067,0.0072,0.0059,0.0058,0.0075,0.008,0.0083,0.0085,0.0125,0.0132,0.0139,0,0,0,0,0,0,0.0165,0.0145,0.0132,0.0148,0.0141,0.0123,0.0133,0.0117,0.0114,0.011,0.0084,0.0081,0.0094,0.0085,0.007,0.0097,0.0073,0.0076,0.0103,0.011,0.0116,0.0118,0.0036,0,0,0,0,0,0.0176,0.018,0.0162,0.0178,0.0175,0.0155,0.0155,0.0141,0.0132,0.0129,0.0116,0.0108,0.0108,0.0108,0.0107,0.0126,0.0122,0.0137,0.0143,0.0148,0.0151,0.0162,0.0168,0.0096,0.0096,0.0096,0,0,0.0197,0.0186,0.019,0.0185,0.0178,0.0183,0.0153,0.0159,0.0162,0.0129,0.0138,0.0129,0.0118,0.0133,0.0139,0.0126,0.017,0.0151,0.0155,0.0156,0.0165,0.0172,0.0178,0.0098,0.0098,0.0097,0,0,0.0238,0.0231,0.0244,0.0238,0.0229,0.0216,0.0219,0.0204,0.0197,0.0206,0.0182,0.0186,0.0186,0.018,0.0177,0.0219,0.02,0.0219,0.0249,0.026,0.0266,0.0271,0.0287,0.0293,0.0222,0.0222,0.0222,0,0.0265,0.0273,0.0252,0.0261,0.026,0.0232,0.0245,0.024,0.0231,0.023,0.0216,0.0218,0.0208,0.0222,0.0233,0.0231,0.0234,0.0221,0.0267,0.0272,0.0276,0.0291,0.0297,0.0224,0.0224,0.0224,0.0224,0,0.0308,0.0313,0.0325,0.0319,0.0319,0.0329,0.0311,0.0313,0.0299,0.0287,0.0298,0.0286,0.0283,0.0285,0.027,0.0297,0.029,0.0272,0.0247,0.0286,0.03,0.0305,0.0228,0.0227,0.0226,0.0226,0,0,0.0371,0.0355,0.036,0.0358,0.0346,0.035,0.036,0.0358,0.0362,0.0356,0.0364,0.0366,0.035,0.0347,0.0331,0.0341,0.0377,0.0322,0.0321,0.0334,0.0408,0.0423,0.043,0.0365,0.0366,0.0366,0.041,0,0.0411,0.0428,0.0411,0.0432,0.0437,0.0412,0.0421,0.0415,0.0405,0.0408,0.0396,0.0399,0.0376,0.0375,0.0383,0.0371,0.0392,0.0367,0.0372,0.0372,0.0376,0.0437,0.0451,0.0492,0.0415,0.0416,0.0416,0,0.0459,0.0458,0.048,0.047,0.0471,0.048,0.0478,0.0481,0.0474,0.0466,0.0464,0.0446,0.0455,0.0431,0.0444,0.0427,0.0428,0.0423,0.0424,0.0424,0.0397,0.0439,0.0505,0.0512,0.0424,0.0424,0.0423,0,0.0505,0.0509,0.0523,0.0521,0.0509,0.0516,0.0511,0.0503,0.0504,0.0502,0.0503,0.0501,0.0501,0.05,0.0483,0.0467,0.0498,0.0472,0.0492,0.0493,0.05,0.05,0.0568,0.05,0.05,0.0499,0.0499,0,0.0551,0.0565,0.0544,0.0552,0.0568,0.0549,0.0565,0.0557,0.0551,0.0558,0.0535,0.0542,0.0518,0.0522,0.0508,0.0522,0.0521,0.0515,0.0512,0.0518,0.0519,0.0518,0.0515,0.0501,0.0501,0.05,0.05,0,0.0604,0.059,0.0604,0.0593,0.059,0.0602,0.0592,0.06,0.0589,0.0598,0.0599,0.0582,0.0586,0.0569,0.0569,0.056,0.0581,0.0572,0.0584,0.0581,0.0603,0.0602,0.0673,0.0682,0.0608,0.0609,0.0609,0,0.0635,0.0646,0.0636,0.064,0.0637,0.0643,0.0644,0.0626,0.0628,0.0623,0.0631,0.0634,0.0635,0.0643,0.063,0.0631,0.0622,0.0647,0.0622,0.0628,0.0624,0.0624,0.0625,0.0653,0.0654,0.0654,0.0655,0,0.0691,0.0684,0.0688,0.069,0.0693,0.0693,0.0692,0.0696,0.0676,0.068,0.0685,0.0686,0.0688,0.0692,0.069,0.0684,0.0667,0.0663,0.0668,0.0675,0.0682,0.0679,0.0599,0.0661,0.0661,0.066,0.066,0.066,0.0734,0.0743,0.0739,0.0744,0.0742,0.0742,0.075,0.0741,0.0745,0.0747,0.0735,0.0743,0.0737,0.0734,0.073,0.0736,0.0724,0.0731,0.0733,0.0735,0.0739,0.0681,0.0735,0.0735,0.0735,0.0735,0.0735,0,0.079,0.0786,0.0792,0.0792,0.0797,0.0781,0.078,0.0784,0.0792,0.0789,0.0792,0.0798,0.0802,0.0791,0.0792,0.0799,0.0791,0.08,0.08,0.0799,0.0749,0.0745,0.0807,0.0807,0.0807,0.0807,0.0807,0.0807,0.0819,0.0835,0.0828,0.0843,0.0839,0.0848,0.0849,0.0849,0.0847,0.0856,0.0859,0.0853,0.0847,0.0848,0.0851,0.0848,0.085,0.0862,0.0856,0.0809,0.0802,0.0796,0.0792,0.0863,0.0863,0.0906,0.0906,0.0907]},{"header":{"parameterUnit":"m.s-1","parameterCategory":1,"la1":30.2991,"la2":30.254,"lo1":-89.0895,"lo2":-89.0444,"dy":0.0017,"dx":0.0017,"nx":28,"ny":28,"refTime":"2026-01-06T03:00:00:Z","depth":0,"parameterNumber":3,"parameterNumberName":"V-component_of_WINDS"},"data":[0,0,0,0,0,0,0,0,0,0,0,0,0,0,0,0,0,0,0,0,0,0,0,0,0,0,0,0,0,0,0,0,0,0,0,0,0,0,0,0,0,0,0,0,0,0,0,0,0,0,0,0,0,0,0,0,0,0,2.6873,2.6873,0,2.6859,2.6858,2.6858,2.684,2.6839,2.6839,2.6839,2.6821,2.6821,2.682,0,0,0,0,0,0,0,0,0,0,0,0,0,2.6884,2.6883,2.6873,2.6873,2.6873,2.6859,2.6858,2.6858,2.684,2.6839,2.6839,2.6839,2.6821,2.6821,2.682,0,0,0,0,0,0,0,0,0,0,0,0,0,2.6875,2.6883,2.6873,2.6862,2.6861,2.6859,2.6858,2.6858,2.684,2.6839,2.6839,2.6838,2.6821,2.6821,2.682,2.6827,0,0,2.6819,2.6819,0,0,0,0,0,0,0,0,2.6875,2.6875,2.6864,2.6863,2.6861,2.6851,2.6855,2.6848,2.684,2.6848,2.6839,2.6838,2.6831,2.683,2.6828,2.6826,2.6826,2.6819,2.6819,2.6819,2.6819,0,0,0,0,0,0,0,2.6876,2.6875,2.6867,2.6864,2.6862,2.6857,2.6855,2.6854,2.6842,2.6847,2.6846,2.6844,2.683,2.6828,2.6827,2.6825,2.6819,2.6819,2.6819,2.6819,2.683,2.6831,0,0,0,0,0,0,2.6879,2.6876,2.6868,2.6867,2.6868,2.6857,2.6855,2.6854,2.6842,2.6839,2.6845,2.6843,2.6829,2.6828,2.6827,2.6835,2.6819,2.6819,2.6819,2.683,2.6831,2.6831,0,0,0,0,0,0,2.6879,2.6878,2.6868,2.6871,2.6869,2.6858,2.6857,2.6854,2.6852,2.684,2.6838,2.6845,2.6828,2.6827,2.6828,2.6834,2.6819,2.6818,2.6829,2.683,2.6831,2.6851,0,0,0,0,0,0,2.6879,2.6878,2.6881,2.6871,2.6869,2.687,2.6857,2.6854,2.6852,2.6851,2.684,2.6837,2.6828,2.6828,2.6827,2.6833,2.6818,2.6829,2.683,2.6831,2.685,2.6852,2.6855,0,0,0,0,0,2.688,2.6886,2.6881,2.688,2.6873,2.6871,2.687,2.6859,2.6853,2.6855,2.6848,2.6838,2.6833,2.6829,2.6827,2.6833,2.6828,2.6829,2.683,2.6849,2.6852,2.6855,0,0,0,0,0,0,2.6896,2.6885,2.6879,2.6883,2.6878,2.6868,2.687,2.6863,2.6859,2.6857,2.6844,2.6842,2.6845,2.6839,2.6834,2.684,2.6829,2.683,2.6844,2.6847,2.6849,2.685,2.6818,0,0,0,0,0,2.69,2.69,2.689,2.6895,2.6893,2.6882,2.6881,2.6874,2.6868,2.6865,2.6857,2.6852,2.6849,2.6847,2.6844,2.6849,2.6847,2.6852,2.6855,2.6857,2.6858,2.6861,2.6864,2.6835,2.6835,2.6835,0,0,2.6908,2.6902,2.6903,2.6898,2.6893,2.6893,2.688,2.6881,2.6881,2.6865,2.6866,2.686,2.6852,2.6856,2.6857,2.6851,2.6866,2.6858,2.686,2.686,2.6863,2.6865,2.6868,2.6835,2.6835,2.6835,0,0,2.6924,2.6919,2.6923,2.6919,2.6913,2.6906,2.6907,2.6898,2.6894,2.6895,2.6884,2.6883,2.6879,2.6875,2.6872,2.6887,2.6878,2.6887,2.6899,2.6903,2.6905,2.6907,2.6913,2.6916,2.6888,2.6888,2.6888,0,2.6935,2.6935,2.6925,2.6927,2.6926,2.6913,2.6917,2.6913,2.6906,2.6905,2.6899,2.6894,2.6888,2.6891,2.6895,2.6893,2.6894,2.6888,2.6906,2.6908,2.6909,2.6915,2.6918,2.6889,2.6889,2.6889,2.6888,0,2.6949,2.695,2.6954,2.6949,2.6947,2.695,2.694,2.694,2.6933,2.6927,2.6929,2.6922,2.6917,2.6917,2.691,2.6919,2.6916,2.6908,2.6897,2.6913,2.6919,2.6921,2.689,2.689,2.689,2.6889,0,0,2.6974,2.6965,2.6966,2.6965,2.6958,2.6958,2.696,2.6957,2.6957,2.6953,2.6955,2.6952,2.6945,2.6942,2.6934,2.6937,2.6952,2.6929,2.6929,2.6934,2.6963,2.6969,2.6972,2.6946,2.6946,2.6947,2.6964,0,2.6988,2.6993,2.6985,2.6991,2.6992,2.6981,2.6983,2.6979,2.6973,2.6973,2.6966,2.6965,2.6956,2.6954,2.6956,2.695,2.6957,2.6948,2.6947,2.6948,2.695,2.6975,2.6981,2.6998,2.6966,2.6966,2.6966,0,2.7006,2.7004,2.7011,2.7005,2.7005,2.7007,2.7005,2.7004,2.7,2.6996,2.6993,2.6985,2.6987,2.6977,2.6979,2.6973,2.6972,2.6969,2.697,2.6969,2.6958,2.6976,2.7003,2.7006,2.6969,2.6969,2.6969,0,2.7024,2.7023,2.7028,2.7026,2.7019,2.7021,2.7018,2.7013,2.7013,2.701,2.701,2.7007,2.7006,2.7004,2.6995,2.6988,2.6999,2.6988,2.6996,2.6996,2.6999,2.6999,2.7026,2.6997,2.6997,2.6997,2.6997,0,2.7042,2.7046,2.7036,2.7039,2.7044,2.7035,2.704,2.7036,2.7032,2.7033,2.7023,2.7024,2.7012,2.7013,2.7006,2.7009,2.7009,2.7005,2.7004,2.7007,2.7007,2.7006,2.7005,2.6998,2.6998,2.6998,2.6998,0,2.7063,2.7056,2.7061,2.7054,2.7053,2.7057,2.7051,2.7053,2.7048,2.705,2.705,2.7041,2.7041,2.7032,2.703,2.7025,2.7032,2.7028,2.7034,2.7033,2.7042,2.7042,2.7071,2.7074,2.7042,2.7043,2.7043,0,2.7075,2.7079,2.7073,2.7074,2.7072,2.7073,2.7073,2.7064,2.7064,2.706,2.7063,2.7062,2.7062,2.7062,2.7055,2.7054,2.7049,2.706,2.7049,2.7053,2.7051,2.7051,2.7052,2.7062,2.7062,2.7063,2.7063,0,2.7097,2.7094,2.7095,2.7094,2.7095,2.7094,2.7092,2.7093,2.7084,2.7084,2.7085,2.7084,2.7083,2.7083,2.708,2.7077,2.7069,2.7067,2.7069,2.7072,2.7076,2.7075,2.7041,2.7066,2.7066,2.7065,2.7065,2.7065,2.7115,2.7118,2.7115,2.7116,2.7115,2.7114,2.7116,2.7111,2.7112,2.7111,2.7105,2.7107,2.7103,2.71,2.7097,2.7098,2.7093,2.7095,2.7096,2.7097,2.7099,2.7076,2.7097,2.7097,2.7097,2.7097,2.7097,0,2.7137,2.7135,2.7136,2.7135,2.7136,2.713,2.7128,2.7129,2.7131,2.7129,2.7129,2.713,2.713,2.7124,2.7123,2.7125,2.7121,2.7125,2.7125,2.7125,2.7103,2.7102,2.7128,2.7128,2.7128,2.7128,2.7128,2.7128,2.7149,2.7155,2.7151,2.7156,2.7154,2.7156,2.7156,2.7155,2.7154,2.7156,2.7156,2.7153,2.7149,2.7148,2.7148,2.7146,2.7146,2.7152,2.7149,2.7129,2.7126,2.7123,2.7122,2.7152,2.7152,2.717,2.717,2.717]}]]